Location: McFarlands Corners
(41.4117°N, 81.3382°W)
Time: 12:47:34
(UTC+00:00)

Courier 1B Rocket - Pass Details

Date: 19 February 2026
Orbit: 920 x 1201 km, 28.2° (Epoch: 10 March)

Event Time Altitude Azimuth Distance (km) Brightness Sun altitude
Rises 02:51:42 0° 250° (WSW) 3,576 8.4 -42.6°
Enters shadow 02:54:20 - 239° (WSW) 2,774 7.6 -43.1°
Reaches altitude 10° 02:54:45 10° 237° (WSW) 2,658 - -43.1°
Maximum altitude 02:59:45 24° 185° (S) 1,883 - -44.0°
Drops below altitude 10° 03:04:59 10° 134° (SE) 2,789 - -44.8°
Sets 03:08:16 0° 121° (ESE) 3,792 - -45.3°
